Glens Falls, NY

1:22 PM EDT on September 23, 2019 (GMT -0400)
Bennett Memorial

Weather History for KGFL - August, 2019

Change the Weather History Date:

Saturday, August 24, 2019

  Actual Average Record
Temperature  
Mean Temperature 60 °F 66 °F  
Max Temperature 73 °F 78 °F 92 °F (1918)
Min Temperature 47 °F 54 °F 38 °F (1952)
Degree Days  
Heating Degree Days 5 2  
Month to date heating degree days 12 28  
Since 1 June heating degree days 82 139  
Since 1 July heating degree days 12 49  
Cooling Degree Days 0 3  
Month to date cooling degree days 90 88  
Year to date cooling degree days 386 308  
Since 1 June cooling degree days 377 296  
Growing Degree Days 9 (Base 50)    
Moisture  
Dew Point 50 °F    
Average Humidity 75    
Maximum Humidity 100    
Minimum Humidity 49    
Precipitation  
Precipitation 0.00 in 0.11 in 2.63 in (1933)
Month to date precipitation 2.83 2.97  
Year to date precipitation 28.77 25.10  
Sea Level Pressure  
Sea Level Pressure 30.22 in    
Wind  
Wind Speed 6 mph (North)    
Max Wind Speed 16 mph    
Max Gust Speed 20 mph    
Visibility 10 miles    
Events      
T = Trace of Precipitation, MM = Missing Value Source: NWS Daily Summary

Daily Weather History Graph

Daily Weather History Graph

Search for Another Location

Airport or City:

Astronomy

Aug. 24, 2019 Rise Set
Actual Time 6:09 AM EDT 7:43 PM EDT
Civil Twilight 5:39 AM EDT 8:13 PM EDT
Nautical Twilight 5:02 AM EDT 8:49 PM EDT
Astronomical Twilight 4:23 AM EDT 9:28 PM EDT
Moon No Moon Rise 3:00 PM EDT (8/24)
Length of Visible Light 14h 34m
Length of Day
13h 34m
Last Quarter, 39% of the Moon is Illuminated
Aug 24
Last Quarter
Aug 30
New
Sep 5
First Quarter
Sep 14
Full
Sep 21
Last Quarter

Hourly Weather History & Observations

Time (EDT) Temp. Dew Point Humidity Pressure Visibility Wind Dir Wind Speed Gust Speed Precip Events Conditions
12:53 AM 59.0 °F 48.9 °F 69% 30.12 in 10.0 mi NW 8.1 mph - N/A   Clear
1:53 AM 57.9 °F 48.0 °F 70% 30.12 in 10.0 mi NW 6.9 mph - N/A   Clear
2:53 AM 52.0 °F 46.9 °F 83% 30.14 in 10.0 mi Calm Calm - N/A   Clear
3:53 AM 50.0 °F 46.9 °F 89% 30.14 in 10.0 mi Calm Calm - N/A   Clear
4:53 AM 46.9 °F 46.0 °F 97% 30.16 in 5.0 mi Calm Calm - N/A   Clear
5:53 AM 51.1 °F 46.9 °F 86% 30.17 in 10.0 mi North 5.8 mph - N/A   Clear
6:53 AM 55.0 °F 48.9 °F 80% 30.19 in 10.0 mi NNW 8.1 mph - N/A   Clear
7:53 AM 57.9 °F 50.0 °F 75% 30.22 in 10.0 mi North 8.1 mph - N/A   Clear
8:05 AM 59.0 °F 50.0 °F 72% 30.22 in 10.0 mi NNW 5.8 mph - N/A   Partly Cloudy
8:53 AM 62.1 °F 50.0 °F 65% 30.23 in 10.0 mi North 6.9 mph - N/A   Clear
9:53 AM 63.0 °F 51.1 °F 65% 30.24 in 10.0 mi NNW 9.2 mph - N/A   Partly Cloudy
10:53 AM 64.0 °F 50.0 °F 60% 30.24 in 10.0 mi North 10.4 mph - N/A   Scattered Clouds
11:53 AM 66.9 °F 51.1 °F 57% 30.23 in 10.0 mi North 8.1 mph - N/A   Overcast
12:53 PM 69.1 °F 52.0 °F 54% 30.22 in 10.0 mi North 9.2 mph - N/A   Mostly Cloudy
1:53 PM 69.1 °F 52.0 °F 54% 30.22 in 10.0 mi NNW 10.4 mph - N/A   Mostly Cloudy
2:53 PM 71.1 °F 52.0 °F 51% 30.22 in 10.0 mi East 6.9 mph - N/A   Scattered Clouds
3:53 PM 72.0 °F 52.0 °F 49% 30.22 in 10.0 mi ENE 10.4 mph 17.3 mph N/A   Clear
4:53 PM 72.0 °F 52.0 °F 49% 30.22 in 10.0 mi NE 12.7 mph - N/A   Clear
5:53 PM 70.0 °F 53.1 °F 55% 30.23 in 10.0 mi NE 12.7 mph - N/A   Partly Cloudy
6:53 PM 68.0 °F 52.0 °F 56% 30.24 in 10.0 mi NNE 12.7 mph - N/A   Mostly Cloudy
7:53 PM 64.0 °F 53.1 °F 67% 30.26 in 10.0 mi North 6.9 mph - N/A   Overcast
8:53 PM 61.0 °F 52.0 °F 72% 30.28 in 10.0 mi North 8.1 mph - N/A   Mostly Cloudy
9:53 PM 55.9 °F 52.0 °F 87% 30.30 in 10.0 mi Calm Calm - N/A   Clear
10:53 PM 54.0 °F 52.0 °F 93% 30.32 in 10.0 mi Calm Calm - N/A   Clear
11:53 PM 53.1 °F 52.0 °F 96% 30.32 in 5.0 mi Calm Calm - N/A   Clear